ACA1353 TNCC-CYYZ

Flight info

Callsign ACA1353
Flight time 4h 54m
Altitude 36000
Route VESKA1K VESKA UA315 JOSES A315 KNSLY Y298 RUMFO DCT CASPR/N0460F370 Y307 JAZZI AR3 GARIC Q129 PYTON DCT WOZEE LINNG3
Aircraft B38M/M-SDE1FGHILORVWXY/HB1

Departure

Time 2026-05-08 20:42
Airport Hato International Airport (TNCC)

Arrival

Time 2026-05-09 01:37
Airport Toronto Pearson International Airport (CYYZ)
Time Latitude Longitude Altitude Speed Heading
2026-05-08 19:42 12.18525 -68.95576 46 ft 0 kts 190°
2026-05-08 20:35 12.18548 -68.95572 45 ft 4 kts 194°
2026-05-08 20:35 12.18574 -68.95564 43 ft 4 kts 201°
2026-05-08 20:35 12.18598 -68.95552 45 ft 4 kts 214°
2026-05-08 20:35 12.18615 -68.95534 45 ft 4 kts 255°
2026-05-08 20:36 12.18616 -68.95524 45 ft 2 kts 282°
2026-05-08 20:38 12.18616 -68.95525 45 ft 2 kts 282°
2026-05-08 20:39 12.18626 -68.95569 43 ft 11 kts 282°
2026-05-08 20:39 12.18650 -68.95687 45 ft 23 kts 282°
2026-05-08 20:39 12.18689 -68.95877 45 ft 29 kts 284°
2026-05-08 20:39 12.18736 -68.96084 45 ft 30 kts 281°
2026-05-08 20:40 12.18779 -68.96297 45 ft 31 kts 281°
2026-05-08 20:40 12.18827 -68.96536 43 ft 37 kts 282°
2026-05-08 20:40 12.18882 -68.96800 43 ft 39 kts 282°
2026-05-08 20:40 12.18941 -68.97070 40 ft 39 kts 282°
2026-05-08 20:41 12.18997 -68.97340 42 ft 40 kts 282°
2026-05-08 20:41 12.19056 -68.97592 42 ft 26 kts 304°
2026-05-08 20:41 12.19193 -68.97563 41 ft 23 kts 43°
2026-05-08 20:41 12.19185 -68.97375 43 ft 45 kts 102°
2026-05-08 20:42 12.19079 -68.96872 43 ft 99 kts 102°
2026-05-08 20:42 12.18898 -68.96016 46 ft 146 kts 102°
2026-05-08 20:42 12.18662 -68.94859 110 ft 180 kts 101°
2026-05-08 20:42 12.18405 -68.93579 684 ft 187 kts 101°
2026-05-08 20:43 12.18134 -68.92286 1525 ft 185 kts 102°
2026-05-08 20:43 12.17849 -68.90979 2187 ft 200 kts 103°
2026-05-08 20:43 12.17758 -68.89495 2663 ft 223 kts 76°
2026-05-08 20:43 12.18623 -68.88157 3275 ft 239 kts 40°
2026-05-08 20:44 12.20238 -68.87533 3791 ft 263 kts
2026-05-08 20:44 12.22055 -68.87960 4447 ft 278 kts 335°
2026-05-08 20:44 12.23792 -68.88894 5153 ft 283 kts 336°
2026-05-08 20:44 12.25567 -68.89785 5928 ft 285 kts 336°
2026-05-08 20:45 12.27371 -68.90676 6626 ft 290 kts 336°
2026-05-08 20:45 12.29193 -68.91566 7358 ft 291 kts 336°
2026-05-08 20:45 12.31015 -68.92452 8031 ft 294 kts 336°
2026-05-08 20:45 12.32870 -68.93355 8704 ft 297 kts 336°
2026-05-08 20:46 12.34748 -68.94268 9334 ft 300 kts 336°
2026-05-08 20:46 12.36640 -68.95184 9977 ft 301 kts 336°
2026-05-08 20:46 12.38578 -68.96117 10321 ft 315 kts 337°
2026-05-08 20:46 12.40620 -68.97082 10572 ft 330 kts 337°
2026-05-08 20:47 12.42740 -68.98083 10914 ft 340 kts 337°
2026-05-08 20:47 12.44908 -68.99112 11401 ft 345 kts 337°
2026-05-08 20:47 12.47088 -69.00157 11962 ft 347 kts 337°
2026-05-08 20:47 12.49281 -69.01217 12510 ft 350 kts 336°
2026-05-08 20:48 12.51490 -69.02291 13016 ft 352 kts 336°
2026-05-08 20:48 12.53717 -69.03373 13499 ft 355 kts 336°
2026-05-08 20:48 12.55934 -69.04451 13968 ft 358 kts 336°
2026-05-08 20:48 12.58188 -69.05550 14428 ft 360 kts 336°
2026-05-08 20:49 12.60460 -69.06656 14846 ft 363 kts 336°
2026-05-08 20:49 12.62752 -69.07771 15284 ft 365 kts 336°
2026-05-08 20:49 12.65053 -69.08892 15692 ft 368 kts 336°
2026-05-08 20:49 12.67375 -69.10024 16101 ft 370 kts 336°
2026-05-08 20:50 12.69708 -69.11161 16464 ft 373 kts 336°
2026-05-08 20:50 12.72058 -69.12307 16837 ft 375 kts 336°
2026-05-08 20:50 12.74417 -69.13458 17192 ft 377 kts 336°
2026-05-08 20:50 12.76791 -69.14618 17545 ft 379 kts 336°
2026-05-08 20:51 12.79178 -69.15781 17855 ft 381 kts 336°
2026-05-08 20:51 12.81583 -69.16953 18199 ft 383 kts 336°
2026-05-08 20:51 12.83994 -69.18130 18524 ft 385 kts 336°
2026-05-08 20:51 12.86412 -69.19312 18855 ft 386 kts 336°
2026-05-08 20:52 12.88808 -69.20482 19166 ft 387 kts 337°
2026-05-08 20:52 12.91241 -69.21671 19479 ft 388 kts 336°
2026-05-08 20:52 12.93685 -69.22865 19768 ft 390 kts 337°
2026-05-08 20:52 12.96139 -69.24064 20060 ft 391 kts 337°
2026-05-08 20:53 12.98602 -69.25268 20337 ft 392 kts 337°
2026-05-08 20:53 13.01071 -69.26476 20621 ft 393 kts 337°
2026-05-08 20:53 13.03545 -69.27687 20890 ft 394 kts 337°
2026-05-08 20:53 13.06021 -69.28899 21145 ft 395 kts 337°
2026-05-08 20:54 13.08504 -69.30113 21387 ft 396 kts 337°
2026-05-08 20:54 13.10993 -69.31331 21627 ft 397 kts 337°
2026-05-08 20:54 13.13491 -69.32554 21849 ft 398 kts 337°
2026-05-08 20:54 13.15995 -69.33781 22068 ft 399 kts 337°
2026-05-08 20:55 13.18509 -69.35012 22287 ft 400 kts 337°
2026-05-08 20:55 13.21022 -69.36245 22504 ft 401 kts 337°
2026-05-08 20:55 13.23545 -69.37482 22709 ft 402 kts 337°
2026-05-08 20:55 13.26074 -69.38723 22907 ft 403 kts 338°
2026-05-08 20:56 13.28574 -69.39949 23099 ft 403 kts 338°
2026-05-08 20:56 13.31110 -69.41193 23280 ft 404 kts 337°
2026-05-08 20:56 13.33649 -69.42440 23452 ft 405 kts 337°
2026-05-08 20:56 13.36205 -69.43693 23623 ft 406 kts 338°
2026-05-08 20:57 13.38757 -69.44947 23806 ft 407 kts 338°
2026-05-08 20:57 13.41320 -69.46205 23969 ft 408 kts 338°
2026-05-08 20:57 13.43853 -69.47450 24139 ft 408 kts 338°
2026-05-08 20:57 13.46421 -69.48712 24284 ft 409 kts 338°
2026-05-08 20:58 13.48992 -69.49976 24446 ft 410 kts 338°
2026-05-08 20:58 13.51572 -69.51245 24567 ft 411 kts 338°
2026-05-08 20:58 13.54160 -69.52517 24713 ft 412 kts 337°
2026-05-08 20:58 13.56752 -69.53793 24859 ft 413 kts 337°
2026-05-08 20:59 13.59352 -69.55072 24980 ft 414 kts 337°
2026-05-08 20:59 13.61952 -69.56352 25115 ft 414 kts 337°
2026-05-08 20:59 13.64522 -69.57617 25231 ft 415 kts 337°
2026-05-08 20:59 13.67135 -69.58904 25349 ft 416 kts 337°
2026-05-08 21:00 13.69743 -69.60189 25454 ft 417 kts 337°
2026-05-08 21:00 13.72365 -69.61480 25561 ft 417 kts 337°
2026-05-08 21:00 13.74987 -69.62773 25679 ft 418 kts 337°
2026-05-08 21:00 13.77613 -69.64067 25779 ft 419 kts 337°
2026-05-08 21:01 13.80247 -69.65365 25878 ft 419 kts 337°
2026-05-08 21:01 13.82883 -69.66665 25985 ft 420 kts 337°
2026-05-08 21:01 13.85519 -69.67966 26086 ft 420 kts 337°
2026-05-08 21:01 13.88123 -69.69252 26176 ft 421 kts 337°
2026-05-08 21:02 13.90764 -69.70555 26267 ft 422 kts 337°
2026-05-08 21:02 13.93410 -69.71863 26350 ft 422 kts 337°
2026-05-08 21:02 13.96064 -69.73174 26430 ft 423 kts 337°
2026-05-08 21:02 13.98720 -69.74486 26508 ft 424 kts 337°
2026-05-08 21:03 14.01376 -69.75798 26588 ft 424 kts 337°
2026-05-08 21:03 14.04042 -69.77116 26677 ft 424 kts 337°
2026-05-08 21:03 14.06708 -69.78435 26752 ft 425 kts 337°
2026-05-08 21:03 14.09377 -69.79755 26825 ft 425 kts 337°
2026-05-08 21:04 14.12050 -69.81077 26902 ft 426 kts 337°
2026-05-08 21:04 14.14719 -69.82398 26978 ft 426 kts 336°
2026-05-08 21:04 14.17399 -69.83725 27044 ft 427 kts 337°
2026-05-08 21:04 14.20078 -69.85051 27103 ft 427 kts 336°
2026-05-08 21:05 14.22724 -69.86362 27174 ft 427 kts 336°
2026-05-08 21:05 14.25407 -69.87691 27236 ft 428 kts 336°
2026-05-08 21:05 14.28095 -69.89023 27295 ft 428 kts 336°
2026-05-08 21:05 14.30778 -69.90353 27354 ft 429 kts 336°
2026-05-08 21:06 14.33469 -69.91687 27416 ft 429 kts 336°
2026-05-08 21:06 14.36162 -69.93023 27482 ft 429 kts 336°
2026-05-08 21:06 14.38857 -69.94360 27509 ft 430 kts 336°
2026-05-08 21:06 14.41557 -69.95700 27568 ft 430 kts 336°
2026-05-08 21:07 14.44256 -69.97040 27625 ft 431 kts 336°
2026-05-08 21:07 14.46958 -69.98381 27678 ft 431 kts 336°
2026-05-08 21:07 14.49659 -69.99722 27726 ft 431 kts 336°
2026-05-08 21:07 14.52362 -70.01067 27784 ft 431 kts 336°
2026-05-08 21:08 14.55072 -70.02412 27801 ft 432 kts 336°
2026-05-08 21:08 14.57782 -70.03759 27852 ft 433 kts 336°
2026-05-08 21:08 14.60494 -70.05107 27919 ft 433 kts 336°
2026-05-08 21:08 14.63211 -70.06458 27948 ft 433 kts 336°
2026-05-08 21:09 14.65894 -70.07793 27995 ft 433 kts 336°
2026-05-08 21:09 14.71327 -70.10497 28080 ft 433 kts 336°
2026-05-08 21:10 14.76766 -70.13206 28149 ft 434 kts 336°
2026-05-08 21:10 14.79485 -70.14560 28470 ft 432 kts 336°
2026-05-08 21:10 14.82199 -70.15916 28717 ft 435 kts 336°
2026-05-08 21:10 14.84943 -70.17281 28940 ft 438 kts 336°
2026-05-08 21:11 14.87689 -70.18649 29231 ft 439 kts 336°
2026-05-08 21:11 14.90451 -70.20027 29496 ft 441 kts 336°
2026-05-08 21:11 14.93225 -70.21409 29771 ft 443 kts 336°
2026-05-08 21:11 14.96003 -70.22795 30050 ft 444 kts 336°
2026-05-08 21:12 14.98789 -70.24186 30299 ft 446 kts 336°
2026-05-08 21:12 15.01559 -70.25569 30511 ft 448 kts 336°
2026-05-08 21:12 15.04375 -70.26975 30749 ft 450 kts 335°
2026-05-08 21:12 15.07205 -70.28389 30973 ft 452 kts 335°
2026-05-08 21:13 15.10047 -70.29810 31181 ft 454 kts 335°
2026-05-08 21:13 15.12898 -70.31234 31388 ft 456 kts 335°
2026-05-08 21:13 15.15758 -70.32665 31610 ft 458 kts 335°
2026-05-08 21:13 15.18632 -70.34103 31873 ft 458 kts 335°
2026-05-08 21:14 15.21461 -70.35520 32171 ft 458 kts 335°
2026-05-08 21:14 15.24330 -70.36958 32457 ft 458 kts 335°
2026-05-08 21:14 15.27201 -70.38397 32741 ft 458 kts 335°
2026-05-08 21:14 15.30072 -70.39837 33026 ft 458 kts 335°
2026-05-08 21:15 15.32935 -70.41273 33327 ft 457 kts 335°
2026-05-08 21:15 15.35799 -70.42708 33587 ft 457 kts 335°
2026-05-08 21:15 15.38667 -70.44147 33851 ft 457 kts 335°
2026-05-08 21:15 15.41534 -70.45585 34120 ft 457 kts 335°
2026-05-08 21:16 15.44396 -70.47021 34372 ft 457 kts 335°
2026-05-08 21:16 15.47259 -70.48459 34648 ft 456 kts 335°
2026-05-08 21:16 15.50117 -70.49894 34922 ft 455 kts 335°
2026-05-08 21:16 15.52937 -70.51309 35195 ft 454 kts 335°
2026-05-08 21:17 15.55779 -70.52738 35479 ft 453 kts 335°
2026-05-08 21:17 15.58615 -70.54163 35716 ft 453 kts 335°
2026-05-08 21:17 15.61448 -70.55586 35901 ft 453 kts 335°
2026-05-08 21:18 15.67124 -70.58440 35922 ft 452 kts 335°
2026-05-08 21:18 15.71824 -70.60803 35927 ft 451 kts 335°
2026-05-08 21:19 15.77475 -70.63647 35925 ft 451 kts 335°
2026-05-08 21:19 15.83138 -70.66499 35924 ft 451 kts 335°
2026-05-08 21:20 15.88764 -70.69334 35925 ft 452 kts 335°
2026-05-08 21:20 15.94422 -70.72186 35935 ft 452 kts 335°
2026-05-08 21:21 16.00054 -70.75083 35927 ft 452 kts 330°
2026-05-08 21:21 16.05429 -70.78476 35935 ft 452 kts 330°
2026-05-08 21:22 16.10836 -70.81814 35933 ft 451 kts 330°
2026-05-08 21:22 16.16217 -70.85124 35935 ft 452 kts 330°
2026-05-08 21:23 16.21640 -70.88461 35934 ft 452 kts 330°
2026-05-08 21:23 16.27067 -70.91803 35929 ft 452 kts 330°
2026-05-08 21:24 16.32490 -70.95144 35924 ft 452 kts 330°
2026-05-08 21:24 16.37911 -70.98486 35935 ft 453 kts 330°
2026-05-08 21:25 16.43302 -71.01812 35933 ft 453 kts 330°
2026-05-08 21:25 16.48742 -71.05169 35935 ft 453 kts 330°
2026-05-08 21:26 16.54171 -71.08523 35935 ft 454 kts 330°
2026-05-08 21:26 16.59577 -71.11865 35933 ft 454 kts 330°
2026-05-08 21:27 16.65019 -71.15231 35924 ft 454 kts 329°
2026-05-08 21:27 16.70448 -71.18591 35924 ft 454 kts 329°
2026-05-08 21:28 16.75884 -71.21958 35925 ft 454 kts 329°
2026-05-08 21:28 16.81291 -71.25308 35924 ft 454 kts 329°
2026-05-08 21:29 16.86717 -71.28673 35925 ft 454 kts 329°
2026-05-08 21:29 16.92145 -71.32048 35933 ft 454 kts 329°
2026-05-08 21:30 16.97570 -71.35429 35934 ft 454 kts 329°
2026-05-08 21:30 17.02961 -71.38792 35934 ft 454 kts 329°
2026-05-08 21:31 17.08382 -71.42175 35934 ft 454 kts 329°
2026-05-08 21:31 17.13813 -71.45567 35935 ft 454 kts 329°
2026-05-08 21:32 17.19235 -71.48954 35935 ft 453 kts 329°
2026-05-08 21:32 17.24655 -71.52341 35933 ft 453 kts 329°
2026-05-08 21:33 17.30075 -71.55731 35935 ft 453 kts 329°
2026-05-08 21:33 17.35464 -71.59103 35933 ft 453 kts 329°
2026-05-08 21:34 17.40879 -71.62493 35933 ft 453 kts 329°
2026-05-08 21:34 17.46299 -71.65890 35935 ft 453 kts 329°
2026-05-08 21:35 17.51715 -71.69285 35933 ft 453 kts 329°
2026-05-08 21:35 17.57097 -71.72659 35933 ft 453 kts 329°
2026-05-08 21:36 17.62511 -71.76053 35932 ft 453 kts 329°
2026-05-08 21:36 17.67924 -71.79448 35934 ft 453 kts 329°
2026-05-08 21:37 17.73338 -71.82846 35934 ft 453 kts 329°
2026-05-08 21:37 17.78719 -71.86226 35935 ft 453 kts 329°
2026-05-08 21:38 17.84134 -71.89629 35935 ft 453 kts 329°
2026-05-08 21:38 17.89550 -71.93036 35934 ft 453 kts 329°
2026-05-08 21:39 17.95032 -71.96313 35937 ft 453 kts 331°
2026-05-08 21:39 18.00523 -71.99505 35934 ft 453 kts 331°
2026-05-08 21:40 18.06034 -72.02720 35935 ft 453 kts 331°
2026-05-08 21:40 18.11553 -72.05943 35934 ft 453 kts 331°
2026-05-08 21:41 18.19831 -72.10782 35943 ft 453 kts 331°
2026-05-08 21:41 18.25346 -72.14007 35936 ft 453 kts 332°
2026-05-08 21:42 18.30986 -72.16865 35940 ft 453 kts 334°
2026-05-08 21:42 18.36672 -72.19743 35939 ft 453 kts 334°
2026-05-08 21:43 18.42352 -72.22633 35941 ft 452 kts 334°
2026-05-08 21:43 18.48024 -72.25521 35945 ft 452 kts 334°
2026-05-08 21:44 18.53692 -72.28409 35933 ft 452 kts 334°
2026-05-08 21:44 18.59288 -72.31435 35938 ft 452 kts 331°
2026-05-08 21:45 18.64765 -72.34615 35935 ft 452 kts 332°
2026-05-08 21:45 18.70287 -72.37798 35943 ft 452 kts 332°
2026-05-08 21:46 18.75818 -72.40986 35943 ft 452 kts 332°
2026-05-08 21:46 18.81307 -72.44152 35943 ft 452 kts 331°
2026-05-08 21:47 18.86835 -72.47343 35943 ft 452 kts 332°
2026-05-08 21:47 18.92355 -72.50533 35943 ft 451 kts 331°
2026-05-08 21:48 18.97874 -72.53724 35940 ft 451 kts 331°
2026-05-08 21:48 19.03343 -72.56888 35946 ft 451 kts 331°
2026-05-08 21:49 19.08846 -72.60086 35950 ft 451 kts 330°
2026-05-08 21:49 19.14312 -72.63352 35953 ft 451 kts 330°
2026-05-08 21:50 19.19781 -72.66615 35951 ft 450 kts 330°
2026-05-08 21:50 19.25197 -72.69849 35953 ft 450 kts 330°
2026-05-08 21:51 19.30654 -72.73109 35952 ft 450 kts 330°
2026-05-08 21:51 19.36105 -72.76368 35953 ft 450 kts 330°
2026-05-08 21:52 19.41561 -72.79632 35961 ft 450 kts 330°
2026-05-08 21:52 19.47009 -72.82895 35962 ft 450 kts 330°
2026-05-08 21:53 19.52467 -72.86166 35961 ft 450 kts 330°
2026-05-08 21:53 19.57932 -72.89443 35963 ft 451 kts 330°
2026-05-08 21:54 19.63358 -72.92700 35962 ft 451 kts 330°
2026-05-08 21:54 19.68817 -72.95979 35963 ft 451 kts 330°
2026-05-08 21:55 19.74288 -72.99268 35963 ft 451 kts 330°
2026-05-08 21:56 19.82555 -73.04003 35970 ft 451 kts 332°
2026-05-08 21:56 19.88101 -73.07143 35970 ft 451 kts 332°
2026-05-08 21:57 19.93658 -73.10243 35971 ft 451 kts 332°
2026-05-08 21:57 19.99183 -73.13320 35970 ft 451 kts 332°
2026-05-08 21:58 20.04750 -73.16422 35972 ft 451 kts 332°
2026-05-08 21:58 20.10312 -73.19524 35971 ft 451 kts 332°
2026-05-08 21:59 20.15875 -73.22631 35971 ft 451 kts 332°
2026-05-08 21:59 20.21432 -73.25737 35975 ft 451 kts 332°
2026-05-08 22:00 20.26986 -73.28845 35980 ft 451 kts 332°
2026-05-08 22:00 20.32499 -73.31932 35981 ft 451 kts 332°
2026-05-08 22:01 20.38059 -73.35047 35981 ft 451 kts 332°
2026-05-08 22:01 20.43618 -73.38165 35980 ft 451 kts 332°
2026-05-08 22:02 20.49170 -73.41282 35980 ft 451 kts 332°
2026-05-08 22:02 20.54729 -73.44404 35981 ft 451 kts 332°
2026-05-08 22:03 20.60243 -73.47505 35979 ft 451 kts 332°
2026-05-08 22:03 20.65806 -73.50635 35981 ft 452 kts 332°
2026-05-08 22:04 20.71366 -73.53766 35982 ft 451 kts 332°
2026-05-08 22:04 20.76918 -73.56896 35979 ft 451 kts 332°
2026-05-08 22:05 20.82471 -73.60028 35980 ft 451 kts 332°
2026-05-08 22:05 20.88022 -73.63163 35981 ft 451 kts 332°
2026-05-08 22:06 20.93534 -73.66276 35990 ft 451 kts 332°
2026-05-08 22:06 20.98938 -73.69673 35997 ft 451 kts 328°
2026-05-08 22:07 21.04282 -73.73197 35993 ft 450 kts 328°
2026-05-08 22:07 21.09625 -73.76697 35987 ft 450 kts 328°
2026-05-08 22:08 21.14971 -73.80198 35993 ft 450 kts 328°
2026-05-08 22:08 21.19408 -73.83108 35993 ft 450 kts 328°
2026-05-08 22:09 21.24750 -73.86613 35994 ft 450 kts 328°
2026-05-08 22:09 21.30089 -73.90119 35988 ft 450 kts 328°
2026-05-08 22:10 21.35429 -73.93628 35991 ft 450 kts 328°
2026-05-08 22:10 21.40773 -73.97143 35988 ft 450 kts 328°
2026-05-08 22:11 21.46082 -74.00639 35991 ft 450 kts 328°
2026-05-08 22:11 21.51429 -74.04162 35990 ft 450 kts 328°
2026-05-08 22:12 21.56766 -74.07681 35991 ft 449 kts 328°
2026-05-08 22:12 21.62100 -74.11202 35992 ft 449 kts 328°
2026-05-08 22:13 21.67397 -74.14702 35991 ft 449 kts 328°
2026-05-08 22:13 21.72725 -74.18225 35991 ft 450 kts 328°
2026-05-08 22:14 21.78058 -74.21755 35990 ft 449 kts 328°
2026-05-08 22:14 21.83388 -74.25285 35991 ft 450 kts 327°
2026-05-08 22:15 21.88725 -74.28824 35992 ft 450 kts 327°
2026-05-08 22:15 21.94024 -74.32340 35990 ft 450 kts 328°
2026-05-08 22:16 21.99356 -74.35882 35991 ft 449 kts 327°
2026-05-08 22:16 22.04683 -74.39423 35989 ft 449 kts 327°
2026-05-08 22:17 22.09964 -74.42937 35985 ft 449 kts 327°
2026-05-08 22:17 22.15276 -74.46474 35981 ft 449 kts 327°
2026-05-08 22:18 22.20605 -74.50026 35981 ft 449 kts 327°
2026-05-08 22:18 22.25918 -74.53571 35981 ft 449 kts 327°
2026-05-08 22:19 22.31237 -74.57123 35981 ft 449 kts 327°
2026-05-08 22:19 22.36550 -74.60674 35981 ft 449 kts 327°
2026-05-08 22:20 22.41859 -74.64226 35981 ft 449 kts 327°
2026-05-08 22:20 22.47141 -74.67762 35988 ft 449 kts 327°
2026-05-08 22:21 22.52451 -74.71321 35989 ft 448 kts 327°
2026-05-08 22:21 22.57756 -74.74879 35987 ft 448 kts 327°
2026-05-08 22:22 22.63055 -74.78438 35991 ft 448 kts 327°
2026-05-08 22:22 22.68350 -74.81996 35991 ft 448 kts 327°
2026-05-08 22:23 22.73636 -74.85552 35994 ft 447 kts 327°
2026-05-08 22:23 22.78899 -74.89095 35992 ft 447 kts 327°
2026-05-08 22:24 22.84193 -74.92663 35988 ft 447 kts 327°
2026-05-08 22:24 22.89456 -74.96213 35990 ft 447 kts 327°
2026-05-08 22:25 22.94744 -74.99782 35988 ft 447 kts 327°
2026-05-08 22:25 23.00031 -75.03354 35989 ft 447 kts 327°
2026-05-08 22:26 23.05304 -75.06920 35990 ft 447 kts 327°
2026-05-08 22:26 23.10793 -75.10059 36007 ft 447 kts 340°
2026-05-08 22:27 23.16291 -75.12184 36001 ft 449 kts 339°
2026-05-08 22:27 23.22274 -75.14499 36002 ft 449 kts 339°
2026-05-08 22:28 23.28167 -75.16769 35996 ft 448 kts 339°
2026-05-08 22:28 23.34043 -75.19035 35997 ft 448 kts 339°
2026-05-08 22:29 23.39939 -75.21309 35999 ft 448 kts 339°
2026-05-08 22:29 23.45783 -75.23566 35990 ft 448 kts 339°
2026-05-08 22:30 23.51663 -75.25839 35989 ft 447 kts 339°
2026-05-08 22:30 23.57536 -75.28111 35988 ft 447 kts 339°
2026-05-08 22:31 23.63363 -75.30368 35989 ft 447 kts 339°
2026-05-08 22:31 23.69234 -75.32644 35987 ft 447 kts 339°
2026-05-08 22:32 23.75107 -75.34923 35996 ft 447 kts 339°
2026-05-08 22:32 23.80943 -75.37190 35997 ft 447 kts 339°
2026-05-08 22:33 23.86815 -75.39473 35997 ft 447 kts 339°
2026-05-08 22:33 23.92690 -75.41759 36001 ft 447 kts 339°
2026-05-08 22:34 23.98560 -75.44046 36000 ft 447 kts 339°
2026-05-08 22:34 24.04426 -75.46333 35999 ft 447 kts 338°
2026-05-08 22:35 24.10248 -75.48605 35998 ft 446 kts 338°
2026-05-08 22:35 24.16100 -75.50891 36003 ft 446 kts 338°
2026-05-08 22:36 24.21952 -75.53179 35996 ft 446 kts 338°
2026-05-08 22:36 24.27754 -75.55450 35997 ft 446 kts 338°
2026-05-08 22:37 24.33609 -75.57744 35999 ft 446 kts 338°
2026-05-08 22:37 24.39462 -75.60040 36006 ft 446 kts 338°
2026-05-08 22:38 24.45276 -75.62322 36009 ft 446 kts 338°
2026-05-08 22:38 24.51124 -75.64621 36006 ft 446 kts 338°
2026-05-08 22:39 24.56962 -75.66917 36007 ft 446 kts 338°
2026-05-08 22:39 24.62807 -75.69218 36006 ft 445 kts 338°
2026-05-08 22:40 24.68642 -75.71518 36011 ft 445 kts 338°
2026-05-08 22:40 24.74475 -75.73819 36011 ft 445 kts 338°
2026-05-08 22:41 24.80300 -75.76119 36010 ft 444 kts 338°
2026-05-08 22:41 24.86130 -75.78424 36008 ft 444 kts 338°
2026-05-08 22:42 24.91811 -75.80673 36012 ft 444 kts 338°
2026-05-08 22:42 24.97636 -75.82979 36007 ft 444 kts 337°
2026-05-08 22:43 25.03468 -75.85292 36010 ft 444 kts 337°
2026-05-08 22:43 25.09282 -75.87599 36007 ft 444 kts 337°
2026-05-08 22:44 25.15064 -75.89897 36012 ft 444 kts 337°
2026-05-08 22:44 25.20885 -75.92212 36007 ft 443 kts 337°
2026-05-08 22:45 25.26688 -75.94522 36009 ft 443 kts 337°
2026-05-08 22:45 25.32484 -75.96832 36010 ft 443 kts 337°
2026-05-08 22:46 25.38245 -75.99130 36010 ft 443 kts 336°
2026-05-08 22:46 25.44042 -76.01445 36008 ft 442 kts 336°
2026-05-08 22:47 25.49850 -76.03767 36010 ft 443 kts 336°
2026-05-08 22:47 25.55644 -76.06085 36011 ft 442 kts 336°
2026-05-08 22:48 25.61405 -76.08393 36005 ft 442 kts 336°
2026-05-08 22:48 25.67204 -76.10718 36011 ft 442 kts 336°
2026-05-08 22:49 25.72987 -76.13039 36007 ft 442 kts 336°
2026-05-08 22:49 25.81664 -76.16526 36009 ft 442 kts 336°
2026-05-08 22:50 25.87451 -76.18855 36006 ft 442 kts 336°
2026-05-08 22:50 25.93239 -76.21187 36008 ft 442 kts 336°
2026-05-08 22:51 25.98990 -76.23506 36007 ft 442 kts 336°
2026-05-08 22:51 26.04776 -76.25842 36005 ft 441 kts 336°
2026-05-08 22:52 26.10523 -76.28164 36009 ft 441 kts 336°
2026-05-08 22:52 26.16296 -76.30500 36008 ft 442 kts 336°
2026-05-08 22:53 26.22081 -76.32842 36010 ft 442 kts 336°
2026-05-08 22:53 26.27870 -76.35189 36008 ft 441 kts 336°
2026-05-08 22:54 26.33606 -76.37517 36007 ft 441 kts 336°
2026-05-08 22:54 26.39375 -76.39861 36008 ft 441 kts 335°
2026-05-08 22:55 26.45151 -76.42210 36011 ft 441 kts 335°
2026-05-08 22:55 26.50916 -76.44557 36010 ft 441 kts 335°
2026-05-08 22:56 26.56680 -76.46906 36006 ft 441 kts 335°
2026-05-08 22:56 26.61474 -76.48862 36006 ft 440 kts 335°
2026-05-08 22:57 26.68171 -76.51597 36007 ft 440 kts 335°
2026-05-08 22:57 26.72994 -76.53569 36007 ft 440 kts 335°
2026-05-08 22:58 26.78711 -76.55908 36008 ft 440 kts 335°
2026-05-08 22:58 26.84465 -76.58266 36010 ft 439 kts 335°
2026-05-08 22:59 26.90207 -76.60620 36008 ft 439 kts 335°
2026-05-08 22:59 26.95942 -76.62975 36011 ft 439 kts 334°
2026-05-08 23:00 27.01685 -76.65336 36000 ft 439 kts 334°
2026-05-08 23:00 27.07378 -76.67678 35990 ft 438 kts 334°
2026-05-08 23:01 27.13099 -76.70035 35989 ft 438 kts 334°
2026-05-08 23:01 27.18822 -76.72395 35990 ft 437 kts 334°
2026-05-08 23:02 27.24532 -76.74752 35987 ft 437 kts 334°
2026-05-08 23:02 27.30245 -76.77113 35985 ft 437 kts 334°
2026-05-08 23:03 27.35792 -76.79408 35993 ft 437 kts 334°
2026-05-08 23:03 27.41501 -76.81772 35990 ft 437 kts 334°
2026-05-08 23:04 27.47178 -76.84126 35988 ft 436 kts 334°
2026-05-08 23:04 27.52887 -76.86496 35992 ft 436 kts 334°
2026-05-08 23:05 27.58590 -76.88866 35988 ft 436 kts 333°
2026-05-08 23:05 27.64287 -76.91235 35993 ft 436 kts 334°
2026-05-08 23:06 27.69945 -76.93592 35989 ft 436 kts 333°
2026-05-08 23:06 27.75651 -76.95971 35994 ft 437 kts 333°
2026-05-08 23:07 27.81351 -76.98350 35987 ft 437 kts 333°
2026-05-08 23:07 27.87063 -77.00737 35991 ft 437 kts 333°
2026-05-08 23:08 27.90783 -77.02293 35980 ft 437 kts 333°
2026-05-08 23:08 27.96492 -77.04683 36016 ft 438 kts 333°
2026-05-08 23:09 27.99346 -77.05879 36289 ft 437 kts 333°
2026-05-08 23:09 28.02194 -77.07073 36550 ft 436 kts 333°
2026-05-08 23:09 28.05034 -77.08265 36849 ft 434 kts 332°
2026-05-08 23:09 28.07863 -77.09451 37004 ft 432 kts 332°
2026-05-08 23:10 28.13444 -77.11795 36986 ft 422 kts 332°
2026-05-08 23:10 28.18901 -77.14090 36972 ft 420 kts 332°
2026-05-08 23:11 28.24387 -77.16400 36972 ft 421 kts 332°
2026-05-08 23:11 28.29890 -77.18719 36971 ft 420 kts 332°
2026-05-08 23:12 28.35374 -77.21033 36971 ft 421 kts 332°
2026-05-08 23:12 28.40858 -77.23349 36971 ft 420 kts 332°
2026-05-08 23:13 28.46340 -77.25667 36971 ft 420 kts 332°
2026-05-08 23:13 28.51791 -77.27974 36973 ft 420 kts 332°
2026-05-08 23:14 28.57265 -77.30295 36980 ft 420 kts 332°
2026-05-08 23:14 28.62743 -77.32618 36977 ft 420 kts 332°
2026-05-08 23:15 28.68224 -77.34947 36973 ft 420 kts 332°
2026-05-08 23:15 28.73700 -77.37275 36988 ft 420 kts 332°
2026-05-08 23:16 28.79173 -77.39605 36991 ft 419 kts 331°
2026-05-08 23:16 28.84642 -77.41936 36991 ft 419 kts 331°
2026-05-08 23:17 28.90072 -77.44252 36989 ft 419 kts 331°
2026-05-08 23:17 28.95529 -77.46582 36990 ft 418 kts 331°
2026-05-08 23:18 29.00977 -77.48911 36994 ft 417 kts 331°
2026-05-08 23:18 29.06427 -77.51243 36999 ft 418 kts 331°
2026-05-08 23:19 29.11849 -77.53566 36999 ft 418 kts 330°
2026-05-08 23:19 29.17289 -77.55900 36999 ft 417 kts 330°
2026-05-08 23:20 29.22718 -77.58231 36999 ft 416 kts 330°
2026-05-08 23:20 29.28147 -77.60565 37006 ft 416 kts 330°
2026-05-08 23:21 29.33538 -77.62885 37009 ft 415 kts 330°
2026-05-08 23:21 29.38950 -77.65217 37002 ft 415 kts 330°
2026-05-08 23:22 29.44364 -77.67552 36979 ft 414 kts 330°
2026-05-08 23:22 29.49782 -77.69838 36967 ft 421 kts 336°
2026-05-08 23:23 29.52738 -77.70309 36979 ft 436 kts 347°
2026-05-08 23:23 29.55771 -77.70500 36973 ft 437 kts 346°
2026-05-08 23:23 29.61860 -77.70868 36979 ft 438 kts 347°
2026-05-08 23:24 29.67954 -77.71196 36982 ft 438 kts 347°
2026-05-08 23:24 29.74041 -77.71515 36980 ft 438 kts 347°
2026-05-08 23:25 29.80092 -77.71829 36981 ft 438 kts 346°
2026-05-08 23:25 29.86183 -77.72145 36979 ft 438 kts 346°
2026-05-08 23:26 29.92272 -77.72462 36984 ft 438 kts 346°
2026-05-08 23:26 29.98366 -77.72779 36997 ft 438 kts 346°
2026-05-08 23:27 30.04451 -77.73096 36999 ft 437 kts 346°
2026-05-08 23:27 30.10490 -77.73411 37000 ft 437 kts 346°
2026-05-08 23:28 30.16577 -77.73729 36999 ft 437 kts 346°
2026-05-08 23:28 30.22653 -77.74046 37001 ft 437 kts 346°
2026-05-08 23:29 30.28727 -77.74364 37008 ft 437 kts 346°
2026-05-08 23:29 30.34805 -77.74683 37008 ft 437 kts 346°
2026-05-08 23:30 30.40883 -77.75027 37008 ft 435 kts 345°
2026-05-08 23:30 30.46919 -77.75491 37008 ft 435 kts 345°
2026-05-08 23:31 30.52931 -77.75947 37008 ft 435 kts 345°
2026-05-08 23:31 30.58979 -77.76403 37008 ft 435 kts 345°
2026-05-08 23:32 30.65017 -77.76859 37008 ft 434 kts 345°
2026-05-08 23:32 30.71006 -77.77311 37009 ft 434 kts 345°
2026-05-08 23:33 30.77037 -77.77767 37008 ft 433 kts 345°
2026-05-08 23:33 30.83058 -77.78223 37018 ft 433 kts 344°
2026-05-08 23:34 30.89073 -77.78679 37020 ft 433 kts 344°
2026-05-08 23:34 30.95078 -77.79135 37036 ft 432 kts 344°
2026-05-08 23:35 31.01080 -77.79592 37035 ft 432 kts 344°
2026-05-08 23:35 31.07049 -77.80046 37034 ft 431 kts 344°
2026-05-08 23:36 31.13046 -77.80503 37045 ft 431 kts 344°
2026-05-08 23:36 31.19036 -77.80960 37043 ft 431 kts 343°
2026-05-08 23:37 31.25009 -77.81416 37047 ft 430 kts 343°
2026-05-08 23:37 31.30982 -77.81873 37044 ft 430 kts 343°
2026-05-08 23:38 31.36947 -77.82331 37043 ft 429 kts 343°
2026-05-08 23:38 31.42909 -77.82791 37048 ft 429 kts 343°
2026-05-08 23:39 31.48866 -77.83251 37044 ft 430 kts 343°
2026-05-08 23:39 31.54806 -77.83710 37046 ft 430 kts 343°
2026-05-08 23:40 31.60782 -77.84172 37047 ft 430 kts 343°
2026-05-08 23:40 31.66757 -77.84635 37043 ft 430 kts 343°
2026-05-08 23:41 31.72685 -77.85096 37049 ft 429 kts 343°
2026-05-08 23:41 31.78651 -77.85559 37050 ft 429 kts 343°
2026-05-08 23:42 31.84622 -77.86023 37052 ft 429 kts 343°
2026-05-08 23:42 31.90601 -77.86440 37055 ft 431 kts 343°
2026-05-08 23:43 31.96550 -77.86786 37053 ft 431 kts 343°
2026-05-08 23:43 32.02538 -77.87139 37045 ft 431 kts 343°
2026-05-08 23:44 32.08525 -77.87494 37046 ft 431 kts 343°
2026-05-08 23:44 32.13540 -77.87792 37044 ft 431 kts 343°
2026-05-08 23:45 32.19532 -77.88146 37044 ft 431 kts 343°
2026-05-08 23:45 32.25483 -77.88494 37045 ft 431 kts 343°
2026-05-08 23:46 32.31460 -77.88844 37052 ft 430 kts 343°
2026-05-08 23:46 32.37455 -77.89195 37057 ft 431 kts 343°
2026-05-08 23:47 32.43446 -77.89547 37055 ft 430 kts 343°
2026-05-08 23:47 32.49430 -77.89899 37053 ft 430 kts 343°
2026-05-08 23:48 32.55363 -77.90248 37061 ft 428 kts 343°
2026-05-08 23:48 32.61313 -77.90599 37061 ft 429 kts 343°
2026-05-08 23:49 32.67287 -77.90951 37065 ft 430 kts 343°
2026-05-08 23:49 32.73248 -77.91304 37062 ft 427 kts 343°
2026-05-08 23:50 32.79196 -77.91656 37064 ft 427 kts 343°
2026-05-08 23:50 32.85101 -77.92006 37064 ft 427 kts 343°
2026-05-08 23:51 32.91043 -77.92358 37064 ft 427 kts 343°
2026-05-08 23:51 32.96991 -77.92712 37064 ft 426 kts 342°
2026-05-08 23:52 33.02884 -77.93062 37064 ft 426 kts 342°
2026-05-08 23:52 33.08818 -77.93416 37064 ft 426 kts 342°
2026-05-08 23:53 33.14754 -77.93769 37063 ft 426 kts 342°
2026-05-08 23:53 33.20636 -77.94121 37064 ft 425 kts 342°
2026-05-08 23:54 33.26559 -77.94475 37064 ft 425 kts 342°
2026-05-08 23:55 33.35428 -77.95006 37064 ft 425 kts 342°
2026-05-08 23:55 33.41298 -77.95359 37065 ft 425 kts 342°
2026-05-08 23:56 33.47199 -77.95714 37064 ft 424 kts 342°
2026-05-08 23:56 33.53091 -77.96069 37064 ft 424 kts 342°
2026-05-08 23:57 33.58994 -77.96424 37064 ft 424 kts 342°
2026-05-08 23:57 33.64892 -77.96780 37064 ft 424 kts 342°
2026-05-08 23:58 33.70740 -77.97134 37063 ft 423 kts 341°
2026-05-08 23:58 33.76636 -77.97490 37064 ft 423 kts 341°
2026-05-08 23:59 33.82534 -77.97848 37064 ft 423 kts 341°
2026-05-08 23:59 33.88451 -77.98062 37059 ft 435 kts 348°
2026-05-09 00:00 33.94449 -77.97775 37064 ft 433 kts 346°
2026-05-09 00:00 34.00473 -77.97554 37065 ft 433 kts 346°
2026-05-09 00:01 34.06498 -77.97343 37065 ft 433 kts 346°
2026-05-09 00:01 34.12516 -77.97133 37064 ft 433 kts 346°
2026-05-09 00:02 34.18539 -77.96922 37073 ft 433 kts 346°
2026-05-09 00:02 34.24529 -77.96713 37071 ft 432 kts 346°
2026-05-09 00:03 34.30544 -77.96502 37073 ft 432 kts 346°
2026-05-09 00:03 34.36566 -77.96290 37073 ft 432 kts 346°
2026-05-09 00:04 34.42579 -77.96079 37073 ft 432 kts 346°
2026-05-09 00:04 34.48591 -77.95867 37073 ft 432 kts 346°
2026-05-09 00:05 34.54608 -77.95655 37064 ft 432 kts 346°
2026-05-09 00:05 34.60582 -77.95444 37064 ft 432 kts 346°
2026-05-09 00:06 34.66597 -77.95231 37064 ft 431 kts 345°
2026-05-09 00:06 34.72611 -77.95018 37064 ft 432 kts 346°
2026-05-09 00:07 34.78599 -77.94805 37064 ft 432 kts 346°
2026-05-09 00:07 34.84619 -77.94592 37065 ft 432 kts 346°
2026-05-09 00:08 34.90633 -77.94378 37059 ft 433 kts 345°
2026-05-09 00:08 34.96683 -77.94162 37064 ft 434 kts 345°
2026-05-09 00:09 35.02681 -77.93948 37064 ft 434 kts 345°
2026-05-09 00:09 35.08715 -77.93732 37063 ft 433 kts 345°
2026-05-09 00:10 35.14744 -77.93517 37063 ft 434 kts 345°
2026-05-09 00:10 35.20797 -77.93299 37066 ft 435 kts 345°
2026-05-09 00:11 35.26849 -77.93083 37063 ft 435 kts 345°
2026-05-09 00:11 35.32820 -77.93037 37064 ft 422 kts 339°
2026-05-09 00:12 35.38692 -77.93494 37060 ft 423 kts 339°
2026-05-09 00:12 35.44574 -77.93973 37057 ft 423 kts 339°
2026-05-09 00:13 35.50429 -77.94455 37055 ft 423 kts 339°
2026-05-09 00:13 35.56313 -77.94943 37056 ft 423 kts 339°
2026-05-09 00:14 35.62195 -77.95431 37052 ft 423 kts 338°
2026-05-09 00:14 35.68080 -77.95920 37054 ft 425 kts 338°
2026-05-09 00:15 35.73954 -77.96409 37053 ft 425 kts 338°
2026-05-09 00:15 35.79850 -77.96901 37042 ft 425 kts 338°
2026-05-09 00:16 35.85755 -77.97394 37043 ft 424 kts 338°
2026-05-09 00:16 35.91647 -77.97887 37049 ft 425 kts 338°
2026-05-09 00:17 35.97548 -77.98381 37045 ft 424 kts 338°
2026-05-09 00:17 36.03410 -77.98873 37052 ft 425 kts 338°
2026-05-09 00:18 36.09310 -77.99369 37047 ft 424 kts 338°
2026-05-09 00:18 36.15211 -77.99865 37053 ft 424 kts 338°
2026-05-09 00:19 36.21106 -78.00362 37056 ft 425 kts 338°
2026-05-09 00:19 36.27011 -78.00860 37054 ft 425 kts 338°
2026-05-09 00:20 36.32881 -78.01356 37055 ft 424 kts 338°
2026-05-09 00:20 36.38784 -78.01856 37055 ft 424 kts 338°
2026-05-09 00:21 36.44680 -78.02356 37053 ft 425 kts 338°
2026-05-09 00:21 36.50551 -78.02854 37058 ft 425 kts 338°
2026-05-09 00:22 36.56449 -78.03356 37064 ft 425 kts 338°
2026-05-09 00:22 36.62349 -78.03859 37070 ft 425 kts 338°
2026-05-09 00:23 36.68249 -78.04362 37083 ft 425 kts 338°
2026-05-09 00:23 36.74158 -78.04867 37084 ft 425 kts 338°
2026-05-09 00:24 36.80069 -78.05372 37075 ft 425 kts 338°
2026-05-09 00:24 36.85929 -78.05875 37054 ft 425 kts 338°
2026-05-09 00:25 36.91835 -78.06381 37040 ft 424 kts 338°
2026-05-09 00:25 36.97714 -78.06887 37024 ft 423 kts 338°
2026-05-09 00:26 37.03593 -78.07393 37026 ft 423 kts 339°
2026-05-09 00:26 37.09474 -78.07900 37031 ft 424 kts 339°
2026-05-09 00:27 37.15323 -78.08405 37025 ft 423 kts 338°
2026-05-09 00:27 37.21194 -78.08913 37027 ft 423 kts 338°
2026-05-09 00:28 37.27085 -78.09424 37025 ft 423 kts 338°
2026-05-09 00:28 37.32973 -78.09934 37027 ft 424 kts 338°
2026-05-09 00:29 37.38818 -78.10442 37019 ft 422 kts 339°
2026-05-09 00:29 37.44667 -78.10952 37015 ft 421 kts 339°
2026-05-09 00:30 37.50531 -78.11463 37013 ft 421 kts 339°
2026-05-09 00:30 37.56355 -78.11971 37008 ft 421 kts 339°
2026-05-09 00:31 37.62220 -78.12464 37006 ft 422 kts 339°
2026-05-09 00:31 37.68096 -78.12951 37001 ft 422 kts 339°
2026-05-09 00:32 37.73895 -78.13432 36995 ft 419 kts 339°
2026-05-09 00:32 37.79722 -78.13917 36998 ft 419 kts 339°
2026-05-09 00:33 37.85544 -78.14402 36991 ft 419 kts 339°
2026-05-09 00:33 37.90388 -78.14807 36989 ft 419 kts 339°
2026-05-09 00:34 37.97164 -78.15373 36990 ft 419 kts 339°
2026-05-09 00:34 38.02043 -78.15782 36989 ft 419 kts 339°
2026-05-09 00:35 38.07869 -78.16270 36982 ft 419 kts 339°
2026-05-09 00:35 38.13664 -78.16757 36984 ft 419 kts 339°
2026-05-09 00:36 38.19493 -78.17247 36984 ft 419 kts 339°
2026-05-09 00:36 38.25324 -78.17739 36982 ft 420 kts 339°
2026-05-09 00:37 38.31156 -78.18231 36980 ft 419 kts 339°
2026-05-09 00:37 38.36941 -78.18720 36972 ft 420 kts 339°
2026-05-09 00:38 38.42773 -78.19214 36977 ft 420 kts 339°
2026-05-09 00:38 38.48611 -78.19709 36971 ft 420 kts 339°
2026-05-09 00:39 38.54441 -78.20204 36970 ft 420 kts 339°
2026-05-09 00:39 38.60277 -78.20701 36969 ft 420 kts 339°
2026-05-09 00:40 38.66139 -78.21200 36959 ft 423 kts 339°
2026-05-09 00:40 38.72014 -78.21702 36959 ft 423 kts 339°
2026-05-09 00:41 38.80824 -78.22456 36970 ft 424 kts 339°
2026-05-09 00:41 38.86668 -78.22956 36942 ft 423 kts 339°
2026-05-09 00:42 38.92538 -78.23460 36936 ft 421 kts 340°
2026-05-09 00:42 38.98400 -78.23964 36937 ft 422 kts 340°
2026-05-09 00:43 39.04275 -78.24471 36935 ft 424 kts 340°
2026-05-09 00:43 39.10172 -78.24979 36944 ft 424 kts 340°
2026-05-09 00:44 39.16067 -78.25489 36944 ft 425 kts 340°
2026-05-09 00:44 39.21973 -78.26000 36948 ft 425 kts 340°
2026-05-09 00:45 39.27843 -78.26509 36939 ft 425 kts 340°
2026-05-09 00:45 39.33760 -78.27023 36946 ft 425 kts 340°
2026-05-09 00:46 39.39662 -78.27537 36944 ft 425 kts 340°
2026-05-09 00:46 39.45574 -78.28051 36931 ft 423 kts 340°
2026-05-09 00:47 39.51457 -78.28566 36940 ft 423 kts 340°
2026-05-09 00:47 39.57293 -78.29076 36906 ft 423 kts 340°
2026-05-09 00:48 39.63185 -78.29592 36946 ft 424 kts 340°
2026-05-09 00:48 39.69076 -78.30109 36935 ft 423 kts 340°
2026-05-09 00:49 39.74895 -78.30831 36938 ft 419 kts 338°
2026-05-09 00:49 39.80710 -78.31590 36956 ft 420 kts 339°
2026-05-09 00:50 39.86518 -78.32342 36939 ft 418 kts 339°
2026-05-09 00:50 39.92311 -78.33091 36948 ft 418 kts 338°
2026-05-09 00:51 39.98067 -78.33837 36946 ft 418 kts 338°
2026-05-09 00:51 40.03866 -78.34589 36951 ft 419 kts 339°
2026-05-09 00:52 40.09667 -78.35342 36944 ft 419 kts 339°
2026-05-09 00:52 40.15467 -78.36097 36943 ft 420 kts 339°
2026-05-09 00:53 40.21250 -78.36851 36949 ft 420 kts 339°
2026-05-09 00:53 40.27064 -78.37610 36956 ft 419 kts 339°
2026-05-09 00:54 40.32875 -78.38370 36955 ft 420 kts 339°
2026-05-09 00:54 40.38687 -78.39132 36953 ft 420 kts 339°
2026-05-09 00:55 40.44504 -78.39895 36952 ft 420 kts 339°
2026-05-09 00:55 40.50336 -78.40662 36960 ft 421 kts 339°
2026-05-09 00:56 40.56171 -78.41431 36954 ft 421 kts 340°
2026-05-09 00:56 40.61968 -78.42196 36957 ft 421 kts 340°
2026-05-09 00:57 40.67813 -78.42968 36949 ft 422 kts 340°
2026-05-09 00:57 40.73655 -78.43742 36939 ft 422 kts 340°
2026-05-09 00:58 40.79510 -78.44519 36937 ft 423 kts 340°
2026-05-09 00:58 40.85332 -78.45292 36932 ft 423 kts 340°
2026-05-09 00:59 40.91204 -78.46074 36949 ft 424 kts 340°
2026-05-09 00:59 40.97076 -78.46857 36942 ft 424 kts 341°
2026-05-09 01:00 41.02960 -78.47643 36938 ft 425 kts 341°
2026-05-09 01:00 41.08846 -78.48431 36948 ft 425 kts 341°
2026-05-09 01:01 41.14747 -78.49222 36945 ft 426 kts 341°
2026-05-09 01:01 41.20619 -78.50011 36945 ft 426 kts 341°
2026-05-09 01:02 41.26527 -78.50806 36935 ft 427 kts 341°
2026-05-09 01:02 41.32451 -78.51605 36949 ft 428 kts 342°
2026-05-09 01:03 41.38384 -78.52406 36936 ft 428 kts 342°
2026-05-09 01:03 41.44311 -78.53207 36937 ft 428 kts 342°
2026-05-09 01:04 41.50187 -78.54004 36920 ft 427 kts 342°
2026-05-09 01:04 41.56040 -78.54799 36926 ft 427 kts 342°
2026-05-09 01:05 41.61963 -78.55605 36932 ft 428 kts 342°
2026-05-09 01:06 41.70803 -78.56810 36923 ft 428 kts 342°
2026-05-09 01:06 41.76734 -78.57621 36930 ft 428 kts 342°
2026-05-09 01:07 41.82657 -78.58432 36929 ft 428 kts 342°
2026-05-09 01:07 41.88470 -78.59229 36931 ft 418 kts 342°
2026-05-09 01:08 41.94249 -78.60024 36916 ft 417 kts 342°
2026-05-09 01:08 42.00021 -78.60818 36932 ft 417 kts 342°
2026-05-09 01:09 42.05803 -78.61615 36912 ft 417 kts 343°
2026-05-09 01:09 42.11628 -78.62422 36240 ft 428 kts 343°
2026-05-09 01:09 42.14616 -78.62836 35344 ft 433 kts 343°
2026-05-09 01:10 42.17633 -78.63253 34471 ft 437 kts 343°
2026-05-09 01:10 42.20671 -78.63674 33655 ft 440 kts 343°
2026-05-09 01:10 42.23658 -78.64088 33241 ft 432 kts 343°
2026-05-09 01:10 42.26615 -78.64498 32902 ft 423 kts 343°
2026-05-09 01:11 42.29525 -78.64902 32470 ft 417 kts 343°
2026-05-09 01:11 42.32374 -78.65297 32289 ft 406 kts 343°
2026-05-09 01:11 42.35207 -78.65694 32141 ft 412 kts 343°
2026-05-09 01:11 42.38084 -78.66096 31948 ft 418 kts 343°
2026-05-09 01:12 42.40979 -78.66499 31776 ft 418 kts 343°
2026-05-09 01:12 42.43872 -78.66903 31430 ft 415 kts 343°
2026-05-09 01:12 42.46733 -78.67304 30879 ft 411 kts 343°
2026-05-09 01:12 42.49577 -78.67701 30308 ft 409 kts 343°
2026-05-09 01:13 42.52363 -78.68092 29785 ft 406 kts 343°
2026-05-09 01:13 42.55163 -78.68484 29277 ft 402 kts 343°
2026-05-09 01:13 42.57931 -78.68872 28798 ft 398 kts 343°
2026-05-09 01:13 42.60676 -78.69257 28387 ft 393 kts 343°
2026-05-09 01:14 42.63380 -78.69638 27918 ft 390 kts 343°
2026-05-09 01:14 42.66074 -78.70016 27422 ft 387 kts 343°
2026-05-09 01:14 42.68739 -78.70391 26951 ft 383 kts 343°
2026-05-09 01:14 42.71387 -78.70764 26475 ft 380 kts 343°
2026-05-09 01:15 42.74009 -78.71134 26004 ft 378 kts 343°
2026-05-09 01:15 42.76622 -78.71503 25535 ft 375 kts 344°
2026-05-09 01:15 42.79213 -78.71869 25078 ft 372 kts 344°
2026-05-09 01:15 42.81780 -78.72231 24622 ft 370 kts 344°
2026-05-09 01:16 42.84328 -78.72591 24180 ft 367 kts 344°
2026-05-09 01:16 42.86861 -78.72950 23742 ft 365 kts 344°
2026-05-09 01:16 42.89348 -78.73302 23315 ft 362 kts 344°
2026-05-09 01:17 42.93781 -78.75651 22260 ft 331 kts 312°
2026-05-09 01:17 42.95391 -78.77841 21875 ft 324 kts 308°
2026-05-09 01:17 42.96916 -78.80084 21462 ft 321 kts 307°
2026-05-09 01:17 42.98388 -78.82363 21051 ft 318 kts 306°
2026-05-09 01:18 42.99821 -78.84652 20649 ft 315 kts 305°
2026-05-09 01:18 43.01228 -78.86936 20256 ft 313 kts 305°
2026-05-09 01:18 43.02619 -78.89215 19864 ft 310 kts 305°
2026-05-09 01:18 43.03973 -78.91453 19481 ft 308 kts 305°
2026-05-09 01:19 43.05331 -78.93705 19100 ft 305 kts 305°
2026-05-09 01:19 43.06674 -78.95939 18726 ft 303 kts 305°
2026-05-09 01:19 43.08006 -78.98156 18352 ft 300 kts 305°
2026-05-09 01:19 43.09327 -79.00358 17985 ft 297 kts 305°
2026-05-09 01:20 43.10636 -79.02542 17623 ft 296 kts 305°
2026-05-09 01:20 43.11956 -79.04746 17249 ft 301 kts 305°
2026-05-09 01:20 43.13293 -79.06978 16934 ft 304 kts 305°
2026-05-09 01:20 43.14635 -79.09221 16684 ft 305 kts 305°
2026-05-09 01:21 43.15525 -79.10709 16527 ft 305 kts 305°
2026-05-09 01:21 43.16867 -79.12955 16285 ft 304 kts 305°
2026-05-09 01:21 43.18642 -79.15926 15959 ft 303 kts 305°
2026-05-09 01:21 43.19974 -79.18158 15713 ft 302 kts 305°
2026-05-09 01:22 43.20856 -79.19638 15546 ft 302 kts 305°
2026-05-09 01:22 43.22186 -79.21870 15303 ft 301 kts 306°
2026-05-09 01:22 43.23513 -79.24098 15056 ft 301 kts 306°
2026-05-09 01:22 43.24837 -79.26323 14810 ft 300 kts 306°
2026-05-09 01:23 43.26158 -79.28545 14568 ft 300 kts 306°
2026-05-09 01:23 43.27474 -79.30760 14319 ft 299 kts 306°
2026-05-09 01:23 43.28764 -79.32933 14069 ft 294 kts 306°
2026-05-09 01:23 43.30104 -79.35012 13814 ft 291 kts 316°
2026-05-09 01:24 43.31865 -79.36408 13564 ft 292 kts 329°
2026-05-09 01:24 43.33673 -79.37602 13340 ft 285 kts 328°
2026-05-09 01:24 43.35451 -79.38767 13111 ft 280 kts 329°
2026-05-09 01:24 43.37204 -79.39909 12695 ft 281 kts 329°
2026-05-09 01:25 43.38991 -79.41065 12189 ft 285 kts 329°
2026-05-09 01:25 43.40797 -79.42228 11701 ft 287 kts 329°
2026-05-09 01:25 43.42596 -79.43386 11221 ft 282 kts 330°
2026-05-09 01:25 43.44357 -79.44520 10739 ft 277 kts 330°
2026-05-09 01:26 43.46061 -79.45617 10290 ft 270 kts 330°
2026-05-09 01:26 43.47745 -79.46702 9823 ft 265 kts 330°
2026-05-09 01:26 43.49386 -79.47759 9355 ft 251 kts 330°
2026-05-09 01:26 43.50917 -79.48747 8937 ft 236 kts 330°
2026-05-09 01:27 43.52402 -79.49707 8537 ft 237 kts 330°
2026-05-09 01:27 43.53908 -79.50680 8125 ft 242 kts 331°
2026-05-09 01:27 43.55414 -79.51647 7986 ft 234 kts 331°
2026-05-09 01:27 43.56885 -79.52593 7992 ft 232 kts 331°
2026-05-09 01:28 43.58399 -79.53384 7983 ft 236 kts 348°
2026-05-09 01:28 43.60037 -79.53129 7990 ft 244 kts 19°
2026-05-09 01:28 43.61432 -79.51784 8008 ft 249 kts 44°
2026-05-09 01:28 43.62635 -79.50030 7944 ft 252 kts 44°
2026-05-09 01:29 43.63851 -79.48268 7601 ft 255 kts 45°
2026-05-09 01:29 43.65072 -79.46493 7173 ft 254 kts 45°
2026-05-09 01:29 43.66272 -79.44746 6707 ft 254 kts 45°
2026-05-09 01:29 43.67493 -79.42965 6239 ft 255 kts 45°
2026-05-09 01:30 43.68710 -79.41188 5767 ft 255 kts 45°
2026-05-09 01:30 43.69925 -79.39413 5358 ft 252 kts 46°
2026-05-09 01:30 43.71113 -79.37675 5032 ft 245 kts 46°
2026-05-09 01:30 43.72272 -79.35980 4722 ft 239 kts 46°
2026-05-09 01:31 43.73409 -79.34317 4412 ft 238 kts 47°
2026-05-09 01:31 43.74684 -79.32873 4082 ft 238 kts 24°
2026-05-09 01:31 43.76270 -79.32465 3771 ft 236 kts 353°
2026-05-09 01:31 43.77792 -79.33223 3458 ft 233 kts 325°
2026-05-09 01:32 43.79091 -79.34544 3171 ft 231 kts 318°
2026-05-09 01:32 43.80018 -79.36269 3006 ft 217 kts 285°
2026-05-09 01:32 43.80145 -79.38257 2998 ft 205 kts 261°
2026-05-09 01:32 43.79985 -79.40233 3039 ft 207 kts 260°
2026-05-09 01:33 43.79661 -79.42158 3008 ft 203 kts 243°
2026-05-09 01:33 43.78911 -79.43757 3007 ft 197 kts 226°
2026-05-09 01:33 43.78003 -79.45049 3024 ft 178 kts 222°
2026-05-09 01:33 43.77163 -79.46227 2991 ft 170 kts 223°
2026-05-09 01:34 43.76352 -79.47402 2883 ft 166 kts 223°
2026-05-09 01:34 43.75554 -79.48564 2701 ft 168 kts 224°
2026-05-09 01:34 43.74744 -79.49746 2504 ft 170 kts 224°
2026-05-09 01:34 43.73942 -79.50921 2283 ft 170 kts 224°
2026-05-09 01:35 43.73122 -79.52117 2060 ft 171 kts 224°
2026-05-09 01:35 43.72308 -79.53308 1832 ft 167 kts 224°
2026-05-09 01:35 43.71534 -79.54438 1629 ft 157 kts 224°
2026-05-09 01:35 43.70797 -79.55517 1370 ft 153 kts 225°
2026-05-09 01:36 43.70072 -79.56615 1184 ft 155 kts 223°
2026-05-09 01:36 43.69332 -79.57658 1005 ft 153 kts 224°
2026-05-09 01:36 43.68593 -79.58722 807 ft 153 kts 225°
2026-05-09 01:36 43.67877 -79.59764 596 ft 145 kts 224°
2026-05-09 01:37 43.67267 -79.60648 567 ft 96 kts 226°
2026-05-09 01:37 43.67008 -79.61036 573 ft 30 kts 233°
2026-05-09 01:37 43.66912 -79.61277 566 ft 15 kts 253°
2026-05-09 01:37 43.66925 -79.61420 566 ft 17 kts 329°
2026-05-09 01:38 43.66990 -79.61389 570 ft 10 kts 46°
2026-05-09 01:38 43.67068 -79.61278 572 ft 23 kts 45°
2026-05-09 01:38 43.67194 -79.61085 561 ft 30 kts 46°
2026-05-09 01:38 43.67336 -79.60881 561 ft 25 kts 46°
2026-05-09 01:39 43.67417 -79.60801 565 ft 14 kts 351°
2026-05-09 01:39 43.67486 -79.60879 568 ft 13 kts 316°
2026-05-09 01:39 43.67562 -79.60884 567 ft 14 kts 45°
2026-05-09 01:39 43.67633 -79.60782 569 ft 16 kts 43°
2026-05-09 01:40 43.67721 -79.60811 564 ft 15 kts 314°
2026-05-09 01:40 43.67795 -79.60914 564 ft 12 kts 314°
2026-05-09 01:40 43.67781 -79.60978 564 ft 8 kts 223°
2026-05-09 01:40 43.67754 -79.61017 568 ft 0 kts 226°